AISSAT 2 (40075 NORAD) Tracking and Keplerian Element Data

This shows tracking and keplerian element data for the satellite.

Feedback or suggestion? Click here.




ElementValue
Catalog40075
NameAISSAT 2
Epoch Orbit38944
Epoch Day262.1124436
Epoch Year2021
RAAN117.2263
Inclination98.4334
Eccentricity0.000663
Argument of Perigee109.6264
Mean Anonmoly250.5663
Mean Motion14.82709346
Decay Rate1.81E-06
L11 40075U 14037G 21262.11244360 .00000181 00000-0 29821-4 0 9991
L22 40075 98.4334 117.2263 0006630 109.6264 250.5663 14.82709346389443

Live tracking and technical data element details for AISSAT 2 (NORAD 40075). AISSAT 2 can be tracked NOW for your location showing map with azimuth and elevation plus other details from your city location.

Track the satellite on the map from your city or location and see movement details for azimuth, elevation, latitude, longitude, range, height, and movement on the map or in text.







IsCatalogInMostPopularTable: catalog: 40075, numindb: 24715
Update: records affected: 1



GetName: 40075 AISSAT 2

Hit Count: updated at: Sun, 26 Sep 2021 00:03:25 GMT